Retour au catalogue

STARLINK-34587

ActifCommunicationsVLEO
NORAD 64735·PAYLOAD·🇺🇸 United States

Lancé Jul 2, 2025 depuis Cape Canaveral Space Force Station

Loading…

Prochains Passages (prochaines 24 heures)

TLE

FraisSource: CelesTrak SupGP

Époque: Sep 15, 2026, 03:02 UTC

1 64735C 25144M   26258.12687500  .00039055  00000+0  11538-2 0  2582
2 64735  53.1609  20.6636 0001200  90.7550 215.7028 15.34372469    13

Suivez STARLINK-34587 en temps réel avec AllMySat

Download on the App Store